Time,TemperatureF,DewpointF,PressureIn,WindDirection,WindDirectionDegrees,WindSpeedMPH,WindSpeedGustMPH,Humidity,HourlyPrecipIn,Conditions,Clouds,dailyrainin,SoftwareType,DateUTC
2013-01-08 00:02:00,34.0,27.0,30.15,SSW,202,5.0,8.0,73,-99.99,,,-99.99,,2013-01-08 06:02:00,
2013-01-08 00:12:00,34.0,27.0,30.15,South,180,5.0,6.0,74,-99.99,,,-99.99,,2013-01-08 06:12:00,
2013-01-08 00:22:00,33.0,27.0,30.15,South,180,3.0,5.0,77,-99.99,,,-99.99,,2013-01-08 06:22:00,
2013-01-08 00:32:00,31.0,27.0,30.15,SSE,157,3.0,3.0,84,-99.99,,,-99.99,,2013-01-08 06:32:00,
2013-01-08 00:42:00,30.0,27.0,30.15,SSE,157,3.0,3.0,88,-99.99,,,-99.99,,2013-01-08 06:42:00,
2013-01-08 00:52:00,31.0,27.0,30.15,SSE,157,2.0,3.0,86,-99.99,,,-99.99,,2013-01-08 06:52:00,
2013-01-08 01:02:00,31.0,27.0,30.15,SSE,157,2.0,3.0,86,-99.99,,,-99.99,,2013-01-08 07:02:00,
2013-01-08 01:12:00,31.0,27.0,30.15,SSE,157,3.0,4.0,86,-99.99,,,-99.99,,2013-01-08 07:12:00,
2013-01-08 01:22:00,31.0,27.0,30.15,SSE,157,1.0,3.0,86,-99.99,,,-99.99,,2013-01-08 07:22:00,
2013-01-08 01:32:00,31.0,27.0,30.15,SE,135,0.0,-999.0,85,-99.99,,,-99.99,,2013-01-08 07:32:00,
2013-01-08 01:42:00,30.0,26.0,30.15,ESE,112,0.0,-999.0,86,-99.99,,,-99.99,,2013-01-08 07:42:00,
2013-01-08 01:52:00,30.0,27.0,30.15,SSE,157,3.0,3.0,88,-99.99,,,-99.99,,2013-01-08 07:52:00,
2013-01-08 02:02:00,30.0,27.0,30.16,South,180,2.0,3.0,87,-99.99,,,-99.99,,2013-01-08 08:02:00,
2013-01-08 02:12:00,30.0,27.0,30.16,SSE,157,2.0,3.0,88,-99.99,,,-99.99,,2013-01-08 08:12:00,
2013-01-08 02:22:00,29.0,27.0,30.15,South,180,3.0,4.0,90,-99.99,,,-99.99,,2013-01-08 08:22:00,
2013-01-08 02:32:00,29.0,27.0,30.16,South,180,3.0,3.0,89,-99.99,,,-99.99,,2013-01-08 08:32:00,
2013-01-08 02:42:00,30.0,27.0,30.16,South,180,3.0,4.0,87,-99.99,,,-99.99,,2013-01-08 08:42:00,
2013-01-08 02:52:00,30.0,27.0,30.16,South,180,4.0,4.0,86,-99.99,,,-99.99,,2013-01-08 08:52:00,
2013-01-08 03:02:00,30.0,27.0,30.17,South,180,3.0,4.0,86,-99.99,,,-99.99,,2013-01-08 09:02:00,
2013-01-08 03:12:00,30.0,27.0,30.17,South,180,3.0,4.0,87,-99.99,,,-99.99,,2013-01-08 09:12:00,
2013-01-08 03:22:00,30.0,27.0,30.16,SSE,157,3.0,4.0,85,-99.99,,,-99.99,,2013-01-08 09:22:00,
2013-01-08 03:32:00,30.0,26.0,30.17,SSE,157,3.0,4.0,88,-99.99,,,-99.99,,2013-01-08 09:32:00,
2013-01-08 03:42:00,29.0,26.0,30.16,SSE,157,3.0,4.0,89,-99.99,,,-99.99,,2013-01-08 09:42:00,
2013-01-08 03:52:00,29.0,26.0,30.16,SSE,157,3.0,4.0,89,-99.99,,,-99.99,,2013-01-08 09:52:00,
2013-01-08 04:02:00,28.0,26.0,30.16,SSE,157,3.0,4.0,90,-99.99,,,-99.99,,2013-01-08 10:02:00,
2013-01-08 04:12:00,28.0,25.0,30.16,SSE,157,3.0,3.0,89,-99.99,,,-99.99,,2013-01-08 10:12:00,
2013-01-08 04:22:00,28.0,25.0,30.16,SSE,157,3.0,4.0,89,-99.99,,,-99.99,,2013-01-08 10:22:00,
2013-01-08 04:32:00,28.0,25.0,30.16,SSE,157,2.0,3.0,91,-99.99,,,-99.99,,2013-01-08 10:32:00,
2013-01-08 04:42:00,28.0,25.0,30.16,SSE,157,4.0,6.0,91,-99.99,,,-99.99,,2013-01-08 10:42:00,
2013-01-08 04:52:00,29.0,26.0,30.16,SSE,157,4.0,5.0,89,-99.99,,,-99.99,,2013-01-08 10:52:00,
2013-01-08 05:02:00,29.0,26.0,30.15,SSE,157,4.0,6.0,87,-99.99,,,-99.99,,2013-01-08 11:02:00,
2013-01-08 05:12:00,29.0,26.0,30.15,SSE,157,5.0,7.0,86,-99.99,,,-99.99,,2013-01-08 11:12:00,
2013-01-08 05:22:00,29.0,26.0,30.15,SSE,157,5.0,7.0,86,-99.99,,,-99.99,,2013-01-08 11:22:00,
2013-01-08 05:32:00,29.0,26.0,30.15,SSE,157,5.0,8.0,86,-99.99,,,-99.99,,2013-01-08 11:32:00,
2013-01-08 05:42:00,29.0,26.0,30.16,SSE,157,5.0,7.0,86,-99.99,,,-99.99,,2013-01-08 11:42:00,
2013-01-08 05:53:00,29.0,26.0,30.16,SSE,157,5.0,7.0,87,-99.99,,,-99.99,,2013-01-08 11:53:00,
2013-01-08 06:02:00,29.0,26.0,30.16,SSE,157,5.0,7.0,87,-99.99,,,-99.99,,2013-01-08 12:02:00,
2013-01-08 06:12:00,30.0,26.0,30.16,South,180,5.0,8.0,85,-99.99,,,-99.99,,2013-01-08 12:12:00,
2013-01-08 06:22:00,30.0,26.0,30.16,South,180,5.0,8.0,83,-99.99,,,-99.99,,2013-01-08 12:22:00,
2013-01-08 06:32:00,30.0,26.0,30.16,SSE,157,6.0,9.0,84,-99.99,,,-99.99,,2013-01-08 12:32:00,
2013-01-08 06:42:00,29.0,26.0,30.16,South,180,4.0,6.0,86,-99.99,,,-99.99,,2013-01-08 12:42:00,
2013-01-08 06:53:00,30.0,26.0,30.16,SSE,157,3.0,6.0,85,-99.99,,,-99.99,,2013-01-08 12:53:00,
2013-01-08 07:03:00,29.0,26.0,30.16,SSE,157,4.0,5.0,89,-99.99,,,-99.99,,2013-01-08 13:03:00,
2013-01-08 07:12:00,29.0,26.0,30.17,SSE,157,5.0,7.0,89,-99.99,,,-99.99,,2013-01-08 13:12:00,
2013-01-08 07:22:00,29.0,26.0,30.17,SSE,157,6.0,8.0,90,-99.99,,,-99.99,,2013-01-08 13:22:00,
2013-01-08 07:32:00,29.0,26.0,30.17,SSE,157,6.0,8.0,88,-99.99,,,-99.99,,2013-01-08 13:32:00,
2013-01-08 07:42:00,30.0,27.0,30.17,SSE,157,6.0,8.0,87,-99.99,,,-99.99,,2013-01-08 13:42:00,
2013-01-08 07:52:00,30.0,27.0,30.17,SSE,157,6.0,8.0,87,-99.99,,,-99.99,,2013-01-08 13:52:00,
2013-01-08 08:02:00,31.0,27.0,30.17,SSE,157,7.0,9.0,86,-99.99,,,-99.99,,2013-01-08 14:02:00,
2013-01-08 08:12:00,31.0,27.0,30.18,SSE,157,6.0,8.0,84,-99.99,,,-99.99,,2013-01-08 14:12:00,
2013-01-08 08:23:00,31.0,27.0,30.18,SSE,157,5.0,7.0,85,-99.99,,,-99.99,,2013-01-08 14:23:00,
2013-01-08 08:33:00,32.0,28.0,30.18,SSE,157,6.0,9.0,83,-99.99,,,-99.99,,2013-01-08 14:33:00,
2013-01-08 08:42:00,32.0,27.0,30.18,SSE,157,7.0,10.0,83,-99.99,,,-99.99,,2013-01-08 14:42:00,
2013-01-08 08:53:00,32.0,28.0,30.18,SSE,157,7.0,8.0,84,-99.99,,,-99.99,,2013-01-08 14:53:00,
2013-01-08 09:02:00,33.0,28.0,30.18,SSE,157,7.0,9.0,82,-99.99,,,-99.99,,2013-01-08 15:02:00,
2013-01-08 09:12:00,34.0,29.0,30.18,SSE,157,7.0,8.0,81,-99.99,,,-99.99,,2013-01-08 15:12:00,
2013-01-08 09:22:00,35.0,29.0,30.18,SSE,157,7.0,9.0,78,-99.99,,,-99.99,,2013-01-08 15:22:00,
2013-01-08 09:33:00,36.0,30.0,30.18,SSE,157,6.0,8.0,78,-99.99,,,-99.99,,2013-01-08 15:33:00,
2013-01-08 09:42:00,36.0,30.0,30.18,SSE,157,5.0,7.0,79,-99.99,,,-99.99,,2013-01-08 15:42:00,
2013-01-08 09:52:00,38.0,31.0,30.19,South,180,5.0,6.0,74,-99.99,,,-99.99,,2013-01-08 15:52:00,
2013-01-08 10:03:00,39.0,31.0,30.19,SSE,157,5.0,7.0,72,-99.99,,,-99.99,,2013-01-08 16:03:00,
2013-01-08 10:12:00,39.0,30.0,30.18,South,180,6.0,10.0,71,-99.99,,,-99.99,,2013-01-08 16:12:00,
2013-01-08 10:22:00,39.0,30.0,30.18,South,180,6.0,9.0,69,-99.99,,,-99.99,,2013-01-08 16:22:00,
2013-01-08 10:33:00,40.0,30.0,30.18,South,180,6.0,8.0,68,-99.99,,,-99.99,,2013-01-08 16:33:00,
2013-01-08 10:42:00,40.0,31.0,30.18,SSE,157,5.0,7.0,71,-99.99,,,-99.99,,2013-01-08 16:42:00,
2013-01-08 10:52:00,39.0,32.0,30.18,SSE,157,5.0,7.0,75,-99.99,,,-99.99,,2013-01-08 16:52:00,
2013-01-08 11:03:00,41.0,32.0,30.18,SSE,157,6.0,8.0,72,-99.99,,,-99.99,,2013-01-08 17:03:00,
2013-01-08 11:12:00,41.0,32.0,30.18,SSE,157,7.0,8.0,70,-99.99,,,-99.99,,2013-01-08 17:12:00,
2013-01-08 11:23:00,42.0,32.0,30.17,SSE,157,6.0,9.0,68,-99.99,,,-99.99,,2013-01-08 17:23:00,
2013-01-08 11:33:00,42.0,32.0,30.17,SSE,157,6.0,9.0,68,-99.99,,,-99.99,,2013-01-08 17:33:00,
2013-01-08 11:43:00,43.0,32.0,30.16,SSE,157,7.0,9.0,67,-99.99,,,-99.99,,2013-01-08 17:43:00,
2013-01-08 11:53:00,44.0,33.0,30.15,SSE,157,6.0,8.0,66,-99.99,,,-99.99,,2013-01-08 17:53:00,
2013-01-08 12:03:00,45.0,33.0,30.15,South,180,4.0,6.0,62,-99.99,,,-99.99,,2013-01-08 18:03:00,
2013-01-08 12:12:00,46.0,32.0,30.14,South,180,6.0,9.0,58,-99.99,,,-99.99,,2013-01-08 18:12:00,
2013-01-08 12:23:00,47.0,32.0,30.14,South,180,7.0,9.0,57,-99.99,,,-99.99,,2013-01-08 18:23:00,
2013-01-08 12:33:00,47.0,31.0,30.14,South,180,8.0,11.0,55,-99.99,,,-99.99,,2013-01-08 18:33:00,
2013-01-08 12:43:00,47.0,33.0,30.13,SSE,157,6.0,8.0,58,-99.99,,,-99.99,,2013-01-08 18:43:00,
2013-01-08 12:53:00,48.0,33.0,30.13,South,180,6.0,9.0,56,-99.99,,,-99.99,,2013-01-08 18:53:00,
2013-01-08 13:03:00,48.0,33.0,30.13,South,180,6.0,9.0,56,-99.99,,,-99.99,,2013-01-08 19:03:00,
2013-01-08 13:12:00,49.0,34.0,30.12,SSE,157,6.0,8.0,56,-99.99,,,-99.99,,2013-01-08 19:12:00,
2013-01-08 13:22:00,49.0,34.0,30.11,SSE,157,7.0,10.0,56,-99.99,,,-99.99,,2013-01-08 19:22:00,
2013-01-08 13:32:00,49.0,35.0,30.11,SSE,157,6.0,11.0,58,-99.99,,,-99.99,,2013-01-08 19:32:00,
2013-01-08 13:42:00,49.0,34.0,30.10,SSE,157,7.0,10.0,55,-99.99,,,-99.99,,2013-01-08 19:42:00,
2013-01-08 13:53:00,50.0,32.0,30.10,South,180,7.0,10.0,51,-99.99,,,-99.99,,2013-01-08 19:53:00,
2013-01-08 14:02:00,50.0,34.0,30.10,SSE,157,7.0,9.0,54,-99.99,,,-99.99,,2013-01-08 20:02:00,
2013-01-08 14:12:00,50.0,34.0,30.09,SSE,157,7.0,9.0,53,-99.99,,,-99.99,,2013-01-08 20:12:00,
2013-01-08 14:22:00,50.0,35.0,30.10,SSE,157,6.0,9.0,55,-99.99,,,-99.99,,2013-01-08 20:22:00,
2013-01-08 14:33:00,51.0,33.0,30.09,South,180,7.0,9.0,51,-99.99,,,-99.99,,2013-01-08 20:33:00,
2013-01-08 14:43:00,51.0,33.0,30.09,South,180,8.0,12.0,50,-99.99,,,-99.99,,2013-01-08 20:43:00,
2013-01-08 14:53:00,51.0,33.0,30.09,South,180,7.0,9.0,50,-99.99,,,-99.99,,2013-01-08 20:53:00,
2013-01-08 15:02:00,51.0,33.0,30.09,South,180,6.0,8.0,50,-99.99,,,-99.99,,2013-01-08 21:02:00,
2013-01-08 15:12:00,51.0,33.0,30.08,South,180,6.0,9.0,50,-99.99,,,-99.99,,2013-01-08 21:12:00,
2013-01-08 15:22:00,51.0,33.0,30.08,SSE,157,6.0,8.0,51,-99.99,,,-99.99,,2013-01-08 21:22:00,
2013-01-08 15:33:00,50.0,35.0,30.08,SSE,157,6.0,8.0,56,-99.99,,,-99.99,,2013-01-08 21:33:00,
2013-01-08 15:43:00,49.0,35.0,30.08,SSE,157,6.0,8.0,58,-99.99,,,-99.99,,2013-01-08 21:43:00,
2013-01-08 15:53:00,48.0,34.0,30.09,SSE,157,6.0,9.0,58,-99.99,,,-99.99,,2013-01-08 21:53:00,
2013-01-08 16:02:00,45.0,35.0,30.09,South,180,5.0,7.0,67,-99.99,,,-99.99,,2013-01-08 22:02:00,
2013-01-08 16:12:00,45.0,34.0,30.08,SSE,157,5.0,7.0,65,-99.99,,,-99.99,,2013-01-08 22:12:00,
2013-01-08 16:22:00,46.0,36.0,30.09,SSE,157,5.0,6.0,66,-99.99,,,-99.99,,2013-01-08 22:22:00,
2013-01-08 16:32:00,46.0,33.0,30.09,South,180,5.0,7.0,61,-99.99,,,-99.99,,2013-01-08 22:32:00,
2013-01-08 16:42:00,45.0,34.0,30.09,SSE,157,4.0,6.0,67,-99.99,,,-99.99,,2013-01-08 22:42:00,
2013-01-08 16:52:00,43.0,34.0,30.08,SSE,157,4.0,6.0,68,-99.99,,,-99.99,,2013-01-08 22:52:00,
2013-01-08 17:02:00,42.0,33.0,30.08,SSE,157,4.0,5.0,70,-99.99,,,-99.99,,2013-01-08 23:02:00,
2013-01-08 17:12:00,41.0,33.0,30.08,SSE,157,2.0,3.0,73,-99.99,,,-99.99,,2013-01-08 23:12:00,
2013-01-08 17:22:00,40.0,33.0,30.09,SSE,157,2.0,3.0,77,-99.99,,,-99.99,,2013-01-08 23:22:00,
2013-01-08 17:32:00,39.0,33.0,30.09,SSE,157,3.0,6.0,77,-99.99,,,-99.99,,2013-01-08 23:32:00,
2013-01-08 17:43:00,39.0,32.0,30.09,SSE,157,3.0,3.0,75,-99.99,,,-99.99,,2013-01-08 23:43:00,
2013-01-08 17:52:00,39.0,32.0,30.09,SSE,157,2.0,3.0,76,-99.99,,,-99.99,,2013-01-08 23:52:00,
2013-01-08 18:02:00,39.0,32.0,30.09,SSE,157,3.0,4.0,75,-99.99,,,-99.99,,2013-01-09 00:02:00,
2013-01-08 18:12:00,39.0,31.0,30.10,SSE,157,3.0,4.0,73,-99.99,,,-99.99,,2013-01-09 00:12:00,
2013-01-08 18:22:00,39.0,32.0,30.10,SSE,157,0.0,-999.0,76,-99.99,,,-99.99,,2013-01-09 00:22:00,
2013-01-08 18:33:00,38.0,32.0,30.09,SSE,157,3.0,4.0,79,-99.99,,,-99.99,,2013-01-09 00:33:00,
2013-01-08 18:42:00,38.0,31.0,30.09,South,180,3.0,5.0,76,-99.99,,,-99.99,,2013-01-09 00:42:00,
2013-01-08 18:52:00,40.0,30.0,30.09,SSE,157,5.0,8.0,67,-99.99,,,-99.99,,2013-01-09 00:52:00,
2013-01-08 19:02:00,40.0,30.0,30.09,SSE,157,6.0,8.0,68,-99.99,,,-99.99,,2013-01-09 01:02:00,
2013-01-08 19:12:00,43.0,29.0,30.09,South,180,6.0,8.0,60,-99.99,,,-99.99,,2013-01-09 01:12:00,
2013-01-08 19:22:00,43.0,29.0,30.10,South,180,4.0,6.0,59,-99.99,,,-99.99,,2013-01-09 01:22:00,
2013-01-08 19:32:00,42.0,29.0,30.10,South,180,4.0,6.0,60,-99.99,,,-99.99,,2013-01-09 01:32:00,
2013-01-08 19:42:00,43.0,29.0,30.11,South,180,5.0,8.0,58,-99.99,,,-99.99,,2013-01-09 01:42:00,
2013-01-08 19:52:00,44.0,29.0,30.10,South,180,5.0,8.0,56,-99.99,,,-99.99,,2013-01-09 01:52:00,
2013-01-08 20:02:00,44.0,29.0,30.11,South,180,5.0,8.0,56,-99.99,,,-99.99,,2013-01-09 02:02:00,
2013-01-08 20:12:00,44.0,29.0,30.11,SSW,202,5.0,7.0,56,-99.99,,,-99.99,,2013-01-09 02:12:00,
2013-01-08 20:22:00,44.0,29.0,30.12,South,180,6.0,8.0,55,-99.99,,,-99.99,,2013-01-09 02:22:00,
2013-01-08 20:32:00,45.0,30.0,30.11,South,180,6.0,8.0,56,-99.99,,,-99.99,,2013-01-09 02:32:00,
2013-01-08 20:42:00,45.0,30.0,30.11,SSW,202,4.0,7.0,55,-99.99,,,-99.99,,2013-01-09 02:42:00,
2013-01-08 20:52:00,45.0,30.0,30.12,SSW,202,4.0,6.0,56,-99.99,,,-99.99,,2013-01-09 02:52:00,
2013-01-08 21:03:00,45.0,30.0,30.12,SSW,202,4.0,6.0,57,-99.99,,,-99.99,,2013-01-09 03:03:00,
2013-01-08 21:12:00,44.0,30.0,30.12,SSW,202,5.0,7.0,56,-99.99,,,-99.99,,2013-01-09 03:12:00,
2013-01-08 21:22:00,43.0,30.0,30.13,SSW,202,5.0,6.0,60,-99.99,,,-99.99,,2013-01-09 03:22:00,
2013-01-08 21:33:00,43.0,29.0,30.13,SSW,202,6.0,7.0,59,-99.99,,,-99.99,,2013-01-09 03:33:00,
2013-01-08 21:42:00,42.0,29.0,30.13,SSW,202,5.0,6.0,59,-99.99,,,-99.99,,2013-01-09 03:42:00,
2013-01-08 21:52:00,42.0,29.0,30.13,SSW,202,5.0,7.0,59,-99.99,,,-99.99,,2013-01-09 03:52:00,
2013-01-08 22:02:00,42.0,29.0,30.13,SSW,202,5.0,7.0,59,-99.99,,,-99.99,,2013-01-09 04:02:00,
2013-01-08 22:12:00,42.0,29.0,30.14,SSW,202,6.0,8.0,59,-99.99,,,-99.99,,2013-01-09 04:12:00,
2013-01-08 22:22:00,42.0,30.0,30.15,SSW,202,6.0,8.0,62,-99.99,,,-99.99,,2013-01-09 04:22:00,
2013-01-08 22:32:00,42.0,31.0,30.15,SW,225,5.0,7.0,62,-99.99,,,-99.99,,2013-01-09 04:32:00,
2013-01-08 22:42:00,43.0,31.0,30.15,SW,225,6.0,9.0,61,-99.99,,,-99.99,,2013-01-09 04:42:00,
2013-01-08 22:52:00,43.0,31.0,30.16,SSW,202,6.0,8.0,63,-99.99,,,-99.99,,2013-01-09 04:52:00,
2013-01-08 23:03:00,42.0,32.0,30.16,SW,225,3.0,5.0,66,-99.99,,,-99.99,,2013-01-09 05:03:00,
2013-01-08 23:12:00,41.0,32.0,30.16,SW,225,3.0,4.0,68,-99.99,,,-99.99,,2013-01-09 05:12:00,
2013-01-08 23:22:00,41.0,31.0,30.17,SSW,202,3.0,4.0,69,-99.99,,,-99.99,,2013-01-09 05:22:00,
2013-01-08 23:33:00,41.0,32.0,30.17,SSW,202,4.0,7.0,68,-99.99,,,-99.99,,2013-01-09 05:33:00,
2013-01-08 23:42:00,41.0,32.0,30.17,SSW,202,4.0,6.0,69,-99.99,,,-99.99,,2013-01-09 05:42:00,
2013-01-08 23:52:00,41.0,32.0,30.18,SSW,202,5.0,7.0,70,-99.99,,,-99.99,,2013-01-09 05:52:00,